User: anonymous   Login
Location: Unspecified
(0.0000°N, 0.0000°E)
Time: 08:41:12
(UTC+00:00)
Language:

NOSS 2-3 (E) - Orbit

View from above orbital plane
View from above orbital plane
View from above satellite
View from above satellite

Ground track
Ground track

The orbit data is extracted from the following two-line orbital elements,

1 23936U 96029E   17141.99596391 0.00000030  00000-0  18340-4 0    00
2 23936  63.3740 120.7729 0603000  12.4353 347.5646 13.40868817    04
Epoch (UTC): 21 May 2017 23:54:11
Eccentricity: 0.0603000
inclination: 63.3740°
perigee height: 655 km
apogee height: 1557 km
right ascension of ascending node: 120.7729°
argument of perigee: 12.4353°
revolutions per day: 13.40868817
mean anomaly at epoch: 347.5646°
orbit number at epoch: 0

The dashed part of the orbit path shows where the satellite is in the earth's shadow,  

DLR